Location: Tucson
(32.2217°N, 110.9265°W)
Time: 09:30:03
(UTC-07:00)

Envisat - Pass Details

Date: 10 October 2022
Orbit: 763 x 765 km, 98.2° (Epoch: 29 November)

Event Time Altitude Azimuth Distance (km) Brightness Sun altitude
Rises 04:21:10 0° 17° (NNE) 3,233 6.6 -26.7°
Reaches altitude 10° 04:23:30 10° 21° (NNE) 2,303 5.8 -26.2°
Maximum altitude 04:28:31 60° 101° (E) 872 3.4 -25.1°
Drops below altitude 10° 04:33:30 10° 181° (S) 2,288 5.4 -24.1°
Sets 04:35:49 0° 185° (S) 3,210 6.1 -23.6°
